TimeCDT,TemperatureF,Dew PointF,Humidity,Sea Level PressureIn,VisibilityMPH,Wind Direction,Wind SpeedMPH,Gust SpeedMPH,PrecipitationIn,Events,Conditions,WindDirDegrees,DateUTC
12:55 AM,72.3,53.1,51,29.79,10.0,SSE,12.7,-,N/A,,Clear,150,2012-05-18 05:55:00
1:55 AM,72.3,52.3,49,29.77,10.0,SSE,13.8,-,N/A,,Clear,150,2012-05-18 06:55:00
2:55 AM,69.6,53.1,56,29.78,10.0,SSE,8.1,-,N/A,,Clear,150,2012-05-18 07:55:00
3:55 AM,67.3,53.4,61,29.78,10.0,SE,9.2,-,N/A,,Partly Cloudy,130,2012-05-18 08:55:00
4:55 AM,66.0,53.4,64,29.78,10.0,SSE,10.4,-,N/A,,Scattered Clouds,160,2012-05-18 09:55:00
5:55 AM,63.5,53.4,70,29.79,10.0,SE,8.1,-,N/A,,Partly Cloudy,140,2012-05-18 10:55:00
6:55 AM,63.9,54.1,71,29.80,10.0,SE,9.2,-,N/A,,Clear,130,2012-05-18 11:55:00
7:55 AM,66.7,55.2,66,29.81,10.0,SE,11.5,-,N/A,,Clear,140,2012-05-18 12:55:00
8:55 AM,73.8,55.2,52,29.82,10.0,South,20.7,27.6,N/A,,Clear,170,2012-05-18 13:55:00
9:55 AM,79.9,55.0,42,29.81,10.0,South,25.3,38.0,N/A,,Clear,170,2012-05-18 14:55:00
10:55 AM,82.6,55.4,39,29.79,10.0,South,24.2,31.1,N/A,,Clear,170,2012-05-18 15:55:00
11:55 AM,85.8,54.5,34,29.77,10.0,South,26.5,34.5,N/A,,Clear,170,2012-05-18 16:55:00
12:55 PM,88.2,54.5,32,29.75,10.0,South,26.5,35.7,N/A,,Clear,170,2012-05-18 17:55:00
1:55 PM,91.4,53.8,28,29.72,10.0,SSE,27.6,35.7,N/A,,Clear,160,2012-05-18 18:55:00
2:55 PM,93.0,52.7,25,29.70,10.0,SSE,26.5,40.3,N/A,,Clear,150,2012-05-18 19:55:00
3:55 PM,93.4,51.1,24,29.69,10.0,SSE,25.3,35.7,N/A,,Clear,160,2012-05-18 20:55:00
4:55 PM,93.9,50.7,23,29.67,10.0,SSE,29.9,34.5,N/A,,Clear,160,2012-05-18 21:55:00
5:55 PM,92.5,51.3,24,29.65,10.0,SSE,28.8,33.4,N/A,,Clear,160,2012-05-18 22:55:00
6:55 PM,90.7,50.9,26,29.66,10.0,SSE,27.6,32.2,N/A,,Clear,160,2012-05-18 23:55:00
7:55 PM,87.3,50.9,29,29.66,10.0,SSE,26.5,34.5,N/A,,Clear,150,2012-05-19 00:55:00
8:55 PM,82.9,50.7,33,29.66,10.0,SE,24.2,31.1,N/A,,Clear,140,2012-05-19 01:55:00
9:55 PM,79.5,53.1,40,29.69,10.0,SSE,19.6,31.1,N/A,,Clear,150,2012-05-19 02:55:00
10:55 PM,77.2,53.8,44,29.71,10.0,SE,17.3,-,N/A,,Clear,140,2012-05-19 03:55:00
11:55 PM,75.7,55.0,49,29.71,10.0,SE,18.4,26.5,N/A,,Clear,140,2012-05-19 04:55:00